Location: Penum?ka
(16.4840°N, 80.5772°E)
Time: 01:10:08
(UTC+00:00)

Stardust Del rocket - Pass Details

Date: 19 May 2025
Orbit: 281 x 3316 km, 22.5° (Epoch: 24 June)

Event Time Altitude Azimuth Distance (km) Brightness Sun altitude
Exits shadow 21:05:41 - 92° (E) 2,206 6.8 -37.9°
Enters shadow 22:38:22 -61° 255° (WSW) 12,437 10.1 -19.8°
Maximum altitude 23:11:34 75° 348° (NNW) 849 4.2 -12.8°
